Preview of NWS' New Version of Forecast
This preview is not operational and should not be used for support decisions.

Regional Weather Roundup (RWR)

Issued by National Weather Service (NWS)

                            
000
ASUS43 KLSX 190807
RWRMO 

WEATHER SUMMARY FOR MISSOURI
NATIONAL WEATHER SERVICE SPRINGFIELD MO
200 AM CST TUE FEB 19 2019

NOTE: "FAIR" INDICATES FEW OR NO CLOUDS BELOW 12,000 FEET WITH NO
       SIGNIFICANT WEATHER AND/OR OBSTRUCTIONS TO VISIBILITY.
       CURRENT SKY AND/OR WEATHER CONDITIONS ARE NOT AVAILABLE FOR
       CHILLICOTHE AND FARMINGTON.

MOZ001>031-035>038-043-044-053-054-190900-
...NORTHERN AND WESTERN MISSOURI...
  
CITY           SKY/WX    TMP DP  RH WIND       PRES   REMARKS
KANSAS CTY INT CLOUDY    18  13  80 NE7       30.52S WCI   9          
KANSAS C DTWN  CLOUDY    24  15  68 E3        30.54F                  
LEE'S SUMMIT   MOCLDY    20  16  84 MISG      30.53S                  
ST JOSEPH      CLOUDY    15   9  76 NE5       30.56S WCI   8          
CHILLICOTHE      N/A     18  13  80 N3        30.58R                  
KIRKSVILLE     PTCLDY    16  12  84 NE3       30.57R                  
     
$$
MOZ066>068-077>081-088>096-101>105-190900-
...SOUTHWEST MISSOURI...
  
CITY           SKY/WX    TMP DP  RH WIND       PRES   REMARKS
SPRINGFIELD    CLOUDY    25  16  68 E9        30.45F WCI  15          
JOPLIN         CLOUDY    26  19  74 NE10      30.45F WCI  16          
BRANSON        CLOUDY    27  19  74 E8        30.45S WCI  18          
               
$$
MOZ032>034-039>042-045>050-055>058-069>072-190900-
...CENTRAL MISSOURI...  
  
CITY           SKY/WX    TMP DP  RH WIND       PRES   REMARKS
COLUMBIA       CLOUDY    22  15  75 NE3       30.54S                  
JEFFERSON CITY CLOUDY    22  15  75 CALM      30.57S                  
ROLLA          PTCLDY    22  15  75 NE5       30.52R WCI  16          
SEDALIA        CLOUDY    19  16  88 E3        30.55S                  
WHITEMAN AFB   MOCLDY    18  14  86 CALM      30.52S                  
WARRENSBURG    CLOUDY    18  14  86 N3        30.54F                  
OSAGE BEACH    PTCLDY    20  17  88 NE3       30.55S                  
               
$$
MOZ051-052-059>065-190900-
...EAST CENTRAL MISSOURI...
  
CITY           SKY/WX    TMP DP  RH WIND       PRES   REMARKS
ST LOUIS INTL  CLOUDY    27  18  69 E5        30.57S WCI  22          
SPIRIT OF STL  CLOUDY    25  20  81 CALM      30.56S                  
ST CHARLES     CLOUDY    27  20  75 E6        30.58R WCI  20          
                   
$$
MOZ072>076-082>087-097>100-106>115-190900-
...SOUTH CENTRAL AND SOUTHEAST MISSOURI...
  
CITY           SKY/WX    TMP DP  RH WIND       PRES   REMARKS
CAPE GIRARDEAU FAIR      29  22  75 NE7       30.54F WCI  22          
FARMINGTON     CLOUDY    23  19  85 NE6       30.53F WCI  16          
POPLAR BLUFF   FAIR      29  24  82 NE6       30.55R WCI  23          
WEST PLAINS    PTCLDY    26  19  74 E9        30.48F WCI  17          
                                       
$$